Location: Launois
(49.6535°N, 4.5395°E)
Time: 03:52:24
(UTC+00:00)

Meteor 1-24 Rocket - Pass Details

Date: 23 May 2024
Orbit: 789 x 927 km, 81.3° (Epoch: 17 June)

Event Time Altitude Azimuth Distance (km) Brightness Sun altitude
Exits shadow 02:02:44 - 175° (S) 2,736 5.9 -12.8°
Reaches altitude 10° 02:03:02 10° 175° (S) 2,623 5.8 -12.7°
Maximum altitude 02:08:57 61° 96° (E) 1,045 4.3 -12.2°
Drops below altitude 10° 02:14:51 10° 18° (NNE) 2,618 7.5 -11.6°
Sets 02:17:20 0° 15° (NNE) 3,551 8.3 -11.4°
